This is the latest recevied weather packets stored in our database for station/object KB3UMW-13. If no packets are shown the sender has not sent any weather packets the latest 10 day(s).
| Time | Temp. | Humidity | Pressure | Rain* | Wind** | Luminosity | Snow |
|---|---|---|---|---|---|---|---|
| 1778008594 | 22.78° C | 38% | 1011.5 hPa | 0 mm | - | 424 W/m² | - |
| 1778008291 | 23.33° C | 42% | 1011.4 hPa | 0 mm | - | 403 W/m² | - |
| 1778007987 | 23.89° C | 39% | 1011.4 hPa | 0 mm | - | 707 W/m² | - |
| 1778007682 | 22.78° C | 40% | 1011.5 hPa | 0 mm | - | 645 W/m² | - |
| 1778007379 | 23.33° C | 39% | 1011.4 hPa | 0 mm | - | 679 W/m² | - |
| 1778007075 | 23.89° C | 36% | 1011.5 hPa | 0 mm | - | 690 W/m² | - |
| 1778006772 | 23.89° C | 39% | 1011.4 hPa | 0 mm | - | 707 W/m² | - |
| 1778006469 | 24.44° C | 38% | 1011.3 hPa | 0 mm | - | 679 W/m² | - |
| 1778006165 | 24.44° C | 42% | 1011.5 hPa | 0 mm | - | 788 W/m² | - |
| 1778005863 | 22.78° C | 37% | 1011.4 hPa | 0 mm | - | 768 W/m² | - |
| 1778005559 | 23.33° C | 36% | 1011.4 hPa | 0 mm | - | 748 W/m² | - |
| 1778005256 | 23.33° C | 38% | 1011.6 hPa | 0 mm | - | 825 W/m² | - |
| 1778004953 | 23.89° C | 37% | 1011.6 hPa | 0 mm | - | 841 W/m² | - |
| 1778004650 | 24.44° C | 39% | 1011.8 hPa | 0 mm | - | 860 W/m² | - |
| 1778004345 | 23.89° C | 42% | 1011.7 hPa | 0 mm | - | 878 W/m² | - |
| 1778004044 | 23.89° C | 39% | 1011.9 hPa | 0 mm | - | 782 W/m² | - |
| 1778003744 | 23.33° C | 38% | 1011.8 hPa | 0 mm | - | 781 W/m² | - |
| 1778003441 | 23.89° C | 40% | 1012.1 hPa | 0 mm | - | 777 W/m² | - |
| 1778003138 | 23.33° C | 39% | 1011.6 hPa | 0 mm | - | 844 W/m² | - |
| 1778002833 | 22.78° C | 38% | 1011.9 hPa | 0 mm | - | 789 W/m² | - |
| 1778002531 | 22.78° C | 41% | 1011.8 hPa | 0 mm | - | 803 W/m² | - |
| 1778002228 | 23.33° C | 44% | 1011.9 hPa | 0 mm | - | 848 W/m² | - |
| 1778001925 | 23.33° C | 41% | 1012 hPa | 0 mm | - | 849 W/m² | - |
| 1778001621 | 22.78° C | 45% | 1011.8 hPa | 0 mm | - | 856 W/m² | - |
| 1778001316 | 23.89° C | 43% | 1012 hPa | 0 mm | - | 867 W/m² | - |
* Rain latest hour (hover to see other rain measurements)
** Current wind speed in m/s (hover to see current wind gust speed)